DW8078 Weather Reports


Display with metric or nautical units.
time (UTC)temp
F
wind
direction
speed
MPH
gust
MPH
rain 1hr
in
rain 24hr
in
rain mn
in
humidity
%
barometer
mb
20180621141215 84 317 12.0 22.0 0.00 0.00 0.00 42 1002.0
20180621135713 84 295 8.0 18.0 0.00 0.00 0.00 43 1002.2
20180621134211 83 309 10.0 18.0 0.00 0.00 0.00 43 1002.6
20180621132710 83 267 9.0 21.0 0.00 0.00 0.00 43 1002.8
20180621131208 83 291 10.0 21.0 0.00 0.00 0.00 44 1003.0
20180621125707 82 327 9.0 23.0 0.00 0.00 0.00 46 1003.4
20180621124204 84 281 8.0 26.0 0.00 0.00 0.00 44 1003.7
20180621122703 84 327 13.0 26.0 0.00 0.00 0.00 45 1004.0
20180621121202 84 265 16.0 24.0 0.00 0.00 0.00 47 1004.2
20180621115657 82 276 18.0 28.0 0.00 0.00 0.00 48 1004.4
20180621114157 82 279 10.0 20.0 0.00 0.00 0.00 49 1004.7
20180621112651 82 269 4.0 24.0 0.00 0.00 0.00 51 1005.0
20180621111151 81 299 10.0 20.0 0.00 0.00 0.00 52 1005.2
20180621105648 81 281 10.0 19.0 0.00 0.00 0.00 52 1005.4
20180621104146 81 260 13.0 21.0 0.00 0.00 0.00 52 1005.7
20180621102643 80 279 8.0 19.0 0.00 0.00 0.00 53 1005.9
20180621101142 79 268 10.0 14.0 0.00 0.00 0.00 55 1006.2
20180621095642 79 296 9.0 16.0 0.00 0.00 0.00 55 1006.5
20180621094138 79 268 10.0 20.0 0.00 0.00 0.00 55 1006.8
20180621092634 79 271 11.0 19.0 0.00 0.00 0.00 55 1007.1
20180621091132 80 277 3.0 18.0 0.00 0.00 0.00 55 1007.5
20180621085631 79 305 9.0 18.0 0.00 0.00 0.00 56 1007.8
20180621084125 78 272 11.0 19.0 0.00 0.00 0.00 57 1008.1
20180621082627 77 242 8.0 15.0 0.00 0.00 0.00 59 1008.2
20180621081122 77 307 4.0 13.0 0.00 0.00 0.00 59 1008.3
20180621075619 76 284 6.0 15.0 0.00 0.00 0.00 60 1008.6
20180621074121 77 260 2.0 14.0 0.00 0.00 0.00 58 1008.7
20180621072618 77 209 4.0 13.0 0.00 0.00 0.00 59 1008.8
20180621071111 76 192 3.0 12.0 0.00 0.00 0.00 60 1009.2
20180621065607 75 256 2.0 11.0 0.00 0.00 0.00 62 1009.5
20180621064103 74 268 2.0 10.0 0.00 0.00 0.00 63 1009.8
20180621062601 73 252 3.0 9.0 0.00 0.00 0.00 64 1009.9
20180621061100 72 263 2.0 9.0 0.00 0.00 0.00 64 1010.1
20180621055552 71 213 1.0 9.0 0.00 0.00 0.00 66 1010.4
20180621054046 70 242 2.0 8.0 0.00 0.00 0.00 67 1010.8
20180621052544 69 262 4.0 9.0 0.00 0.00 0.00 68 1011.1
20180621051041 68 267 2.0 7.0 0.00 0.00 0.00 68 1011.1
20180621045540 69 234 3.0 9.0 0.00 0.00 0.00 67 1011.3
20180621044037 68 278 0.0 0.0 0.00 0.00 0.00 68 1011.4
20180621042533 66 248 0.0 0.0 0.00 0.00 0.00 70 1011.4
20180621041031 66 267 0.0 0.0 0.00 0.00 0.00 70 1011.6
20180621035531 65 240 0.0 0.0 0.00 0.00 0.00 71 1011.9
20180621034026 64 219 0.0 0.0 0.00 0.00 0.00 71 1012.1
20180621032524 64 257 0.0 0.0 0.00 0.00 0.00 72 1012.3
20180621031021 64 222 0.0 0.0 0.00 0.00 0.00 71 1012.6
20180621025521 64 257 0.0 0.0 0.00 0.00 0.00 72 1012.8
20180621024016 64 248 0.0 0.0 0.00 0.00 0.00 71 1013.0
20180621022513 64 246 0.0 0.0 0.00 0.00 0.00 71 1013.2
20180621021015 64 203 0.0 0.0 0.00 0.00 0.00 72 1013.3
20180621015509 63 238 0.0 1.0 0.00 0.00 0.00 73 1013.5
20180621014009 63 245 0.0 0.0 0.00 0.00 0.00 73 1013.8
20180621012508 63 236 0.0 0.0 0.00 0.00 0.00 73 1014.0
20180621011005 63 250 0.0 0.0 0.00 0.00 0.00 72 1014.1
20180621005504 63 253 0.0 0.0 0.00 0.00 0.00 72 1014.3
20180621004004 64 222 0.0 0.0 0.00 0.00 0.00 70 1014.4
20180621002458 64 222 0.0 0.0 0.00 0.00 0.00 69 1014.5
20180621000957 65 221 0.0 0.0 0.00 0.00 0.00 69 1014.7
20180620235456 65 219 0.0 0.0 0.00 0.00 0.00 69 1014.8
20180620233958 65 219 0.0 0.0 0.00 0.00 0.00 68 1014.9
20180620232452 65 218 0.0 0.0 0.00 0.00 0.00 68 1015.0
20180620230951 65 219 0.0 0.0 0.00 0.00 0.00 68 1015.2
20180620225449 65 219 0.0 0.0 0.00 0.00 0.00 68 1015.3
20180620223947 65 219 0.0 0.0 0.00 0.00 0.00 67 1015.5
20180620222444 65 219 0.0 0.0 0.00 0.00 0.00 67 1015.6
20180620220944 66 217 0.0 0.0 0.00 0.00 0.00 64 1015.7
20180620215439 67 217 0.0 0.0 0.00 0.00 0.00 63 1016.0
20180620213937 67 291 0.0 0.0 0.00 0.00 0.00 62 1016.0
20180620212437 68 299 0.0 0.0 0.00 0.00 0.00 61 1016.1
20180620210939 68 299 0.0 0.0 0.00 0.00 0.00 60 1016.2
20180620205438 69 299 0.0 0.0 0.00 0.00 0.00 59 1016.4
20180620203936 69 299 0.0 0.0 0.00 0.00 0.00 58 1016.5
20180620202434 70 299 0.0 0.0 0.00 0.00 0.00 56 1016.5
20180620200936 70 299 0.0 0.0 0.00 0.00 0.00 57 1016.6
20180620195435 71 299 1.0 5.0 0.00 0.00 0.00 55 1016.7
20180620193936 71 290 3.0 9.0 0.00 0.00 0.00 53 1016.6
20180620192432 72 296 2.0 8.0 0.00 0.00 0.00 51 1016.7
20180620190933 72 266 3.0 6.0 0.00 0.00 0.00 52 1016.7
20180620185431 73 260 0.0 4.0 0.00 0.00 0.00 50 1016.6
20180620183931 74 268 0.0 0.0 0.00 0.00 0.00 49 1016.5
20180620182430 76 276 1.0 5.0 0.00 0.00 0.00 46 1016.6
20180620180929 77 259 2.0 7.0 0.00 0.00 0.00 44 1016.6
20180620175432 77 285 1.0 8.0 0.00 0.00 0.00 44 1016.7
20180620173930 78 282 7.0 11.0 0.00 0.00 0.00 43 1016.9
20180620172431 78 272 7.0 13.0 0.00 0.00 0.00 42 1016.9
20180620170924 78 288 7.0 12.0 0.00 0.00 0.00 42 1017.1
20180620165423 79 285 0.0 8.0 0.00 0.00 0.00 42 1017.2
20180620163922 79 299 4.0 14.0 0.00 0.00 0.00 42 1017.4
20180620162420 80 292 2.0 7.0 0.00 0.00 0.00 41 1017.4
20180620160920 80 304 0.0 4.0 0.00 0.00 0.00 41 1017.6
20180620155418 79 269 1.0 12.0 0.00 0.00 0.00 42 1017.9
20180620153917 80 273 2.0 11.0 0.00 0.00 0.00 40 1018.0
20180620152415 79 260 0.0 4.0 0.00 0.00 0.00 40 1018.0
20180620150913 79 311 3.0 12.0 0.00 0.00 0.00 42 1018.1
20180620145411 79 279 0.0 9.0 0.00 0.00 0.00 42 1018.3
20180620143909 78 294 3.0 13.0 0.00 0.00 0.00 41 1018.5
20180620142409 79 337 0.0 6.0 0.00 0.00 0.00 41 1018.8